Location: Gönnheim
(49.4488°N, 8.2383°E)
Time: 19:49:13
(UTC+00:00)

SL-16 R/B - Pass Details

Date: 19 May 2025
Orbit: 841 x 844 km, 71.0° (Epoch: 20 June)

Event Time Altitude Azimuth Distance (km) Brightness Sun altitude
Rises 22:41:00 0° 330° (NNW) 3,414 6.7 -19.9°
Reaches altitude 10° 22:43:28 10° 329° (NNW) 2,475 5.7 -20.0°
Maximum altitude 22:49:09 79° 244° (WSW) 865 2.1 -20.1°
Enters shadow 22:51:19 39° 164° (SSE) 1,240 2.5 -20.2°
